THOR ABLESTAR DEB, 956

Orbit data source: Space-Track

THOR ABLESTAR DEB, 956 is space debris in LEO originally from a launch on Sun, 13 Dec 1964 UTC launched from the Air Force Western Test Range (AFWTR). Debris objects in space refer to the collection of defunct objects orbiting the Earth. Examples of debris include non-operational satellites, rocket bodies, and fragments generated from explosions, collisions, or faulty payload assembly.

Loading next visibility...
Identifier
956, 1964-083B
Orbit
LEO
Country
Flag of USUS
Related business
Manufacturer
Unknown
Mission
Spacecraft
Bus & Motor
Unknown
Mass
Unknown
Launch date (UTC)
1964-12-13 (61 years ago)
Launch vehicle
Unknown
Launch site
Air Force Western Test Range (AFWTR)
Object type
Payload
Rocket body
Debris
Shape & HBR
Unknown shape, 0.1 m
Radar Cross Section
Small (<0.1 m²)

Expand to show TLE details & history
Last TLE update: 13 hours ago

TLE from 13 hours ago
0 THOR ABLESTAR DEB
1   956U 64083B   26035.65999959  .00000335  00000-0  38466-3 0  9999
2   956  89.9329 169.8921 0024064  59.8480 316.9676 13.67483547 38016
Epoch: 2026-02-04T15:50Z
TLE epoch observation values (Epoch: 2026-02-04T15:50:23.964Z)
Latitude
16.60967°
Longitude
157.48877°
Altitude
997.99 km
Speed
7.36 km/s
True Right ascension
11h 19m 38s
True Declination
16° 31' 08"
Sunlit
Object was in full shadow at epoch
Visualization orbit readout
Latitude
Unknown
Longitude
Unknown
Altitude
Unknown
Speed
Unknown
Apparent Right ascension
Unknown
Apparent Declination
Unknown
Sunlit
N/A
Visualization observer readout
Local Sidereal Time
07:13:34
Azimuth
Unknown
Elevation
Unknown
Doppler factor
Unknown
Orbital elements
Apogee altitude
1,023.412 km
Perigee altitude
987.875 km
Semi-major axis
7,383.781 km
Eccentricity
0.00241
Inclination
89.9329°
RAAN
169.8921°
Arg. of periapsis
59.848°
True anomaly
316.77901°
Mean anomaly
316.9676°
Eccentric anomaly
316.87335°
Mean motion
3.42078 °/min
Orbital period
105.24 mins
BSTAR
0.00038466
Loading maneuver chart data...
Computing Atmospheric mass density...

Documentation

Showing up to 5 results
|